This is the latest recevied weather packets stored in our database for station/object OE6JUE. If no packets are shown the sender has not sent any weather packets the latest 10 day(s).
| Time | Temp. | Humidity | Pressure | Rain* | Wind** | Luminosity | Snow |
|---|---|---|---|---|---|---|---|
| 1777528802 | 10° C | 36% | 1029.1 hPa | - | - | - | - |
| 1777528502 | 10.56° C | 39% | 1029.1 hPa | - | - | - | - |
| 1777528202 | 10.56° C | 42% | 1029.2 hPa | - | - | - | - |
| 1777527902 | 10° C | 42% | 1029.1 hPa | - | - | - | - |
| 1777527603 | 10.56° C | 41% | 1029.1 hPa | - | - | - | - |
| 1777527302 | 10° C | 45% | 1029.1 hPa | - | - | - | - |
| 1777527003 | 10° C | 47% | 1029.3 hPa | - | - | - | - |
| 1777526702 | 8.89° C | 45% | 1029.2 hPa | - | - | - | - |
| 1777526403 | 8.89° C | 46% | 1029.1 hPa | - | - | - | - |
| 1777526176 | 8.89° C | 46% | 1029.1 hPa | - | - | - | - |
| 1777525877 | 7.78° C | 51% | 1029.1 hPa | - | - | - | - |
| 1777525576 | 7.78° C | 51% | 1029.1 hPa | - | - | - | - |
| 1777525276 | 6.67° C | 59% | 1029 hPa | - | - | - | - |
| 1777524976 | 5.56° C | 59% | 1028.9 hPa | - | - | - | - |
| 1777524676 | 5° C | 60% | 1028.8 hPa | - | - | - | - |
| 1777524376 | 4.44° C | 62% | 1028.9 hPa | - | - | - | - |
| 1777524076 | 3.89° C | 64% | 1028.9 hPa | - | - | - | - |
| 1777523776 | 2.78° C | 65% | 1028.8 hPa | - | - | - | - |
| 1777523477 | 2.22° C | 67% | 1028.8 hPa | - | - | - | - |
| 1777523176 | 1.67° C | 68% | 1028.7 hPa | - | - | - | - |
| 1777522876 | 1.11° C | 70% | 1028.5 hPa | - | - | - | - |
| 1777522576 | 0.56° C | 70% | 1028.6 hPa | - | - | - | - |
| 1777522276 | 0° C | 70% | 1028.6 hPa | - | - | - | - |
| 1777521977 | -0.56° C | 69% | 1028.6 hPa | - | - | - | - |
| 1777521676 | -1.11° C | 67% | 1028.5 hPa | - | - | - | - |
* Rain since midnight (hover to see other rain measurements)
** Current wind speed in m/s (hover to see current wind gust speed)